Regional Weather Roundup
Issued by NWS

Home | Current Version | Previous Version | Text Only | Print | Product List | Glossary Off
Versions: 1 2 3 4 5 6 7 8 9 10 11 12 13 14 15 16 17 18 19 20 21 22 23 24 25 26 27 28 29 30 31 32 33 34 35 36 37 38 39 40 41 42 43 44 45 46 47 48 49 50

398
ASUS44 KJAN 220803
RWRMS

MISSISSIPPI HOURLY WEATHER ROUNDUP
NATIONAL WEATHER SERVICE JACKSON MS
300 AM CDT FRI AUG 22 2014

NOTE: "FAIR: INDICATES FEW OR NO CLOUDS BELOW 12,000 FEET WITH NO
SIGNIFICANT WEATHER AND/OR OBSTRUCTIONS TO VISIBILITY.

MSZ001>002-007>008-010>013-018>021-025>028-034>036-220900-
NORTHWEST MISSISSIPPI

CITY           SKY/WX    TMP DP  RH WIND       PRES   REMARKS
CLARKSDALE     FAIR      75  75 100 CALM      30.07R
CLEVELAND      FAIR      73  73  98 S3        30.06R
GREENWOOD      MOCLDY    74  71  91 CALM      30.07S
GREENVILLE     PTCLDY    75  70  84 SW5       30.05S
GRENADA        FAIR      73  70  88 CALM      30.08S
OLIVE BRANCH   CLEAR     73  73 100 S6        30.06S
OXFORD         FAIR      75  72  88 SW5       30.10R
TUNICA         SUNNY     73  72  94 S5        30.06R
$$

MSZ003>006-009-014>017-022>024-029>033-037>039-220900-
NORTHEAST MISSISSIPPI

CITY           SKY/WX    TMP DP  RH WIND       PRES   REMARKS
BELMONT        FAIR      74  72  93 CALM      30.09S
COLUMBUS AFB   CLEAR     73  72  96 S3        30.08R
CORINTH        FAIR      73  72  94 CALM      30.07R
GOLDN TRIANGLE CLEAR     73  70  88 CALM      30.09R
STARKVILLE     FAIR      72  70  94 CALM      30.08S
TUPELO         CLEAR     77  72  84 CALM      30.07S
$$

MSZ040-058-220900-
CENTRAL MISSISSIPPI

CITY           SKY/WX    TMP DP  RH WIND       PRES   REMARKS
JACKSON INTL   PTCLDY    73  72  96 SE3       30.08S
JACKSON HAWKNS PTCLDY    75  71  87 E3        30.09R
MERIDIAN KEY   CLEAR     72  69  90 S5        30.09R
MERIDIAN NAS   CLEAR     73  71  93 CALM      30.08S
RAYMOND        FAIR      73  68  83 CALM      30.08R HAZE
VICKSBURG      PTCLDY    72  70  93 CALM      30.07R
$$

MSZ059>079-220900-
SOUTH MISSISSIPPI

CITY           SKY/WX    TMP DP  RH WIND       PRES   REMARKS
BROOKHAVEN     FAIR      72  72 100 CALM      30.10S FOG
COLUMBIA       FOG       73  73 100 MISG      30.08R VSB 1
HATTIESBURG    FOG       75  73  93 CALM      30.09S VSB 1/4
MCCOMB         CLEAR     76  73  91 N5        30.09S
NATCHEZ        PTCLDY    73  72  94 S3        30.09R
PINE BELT      CLEAR     73  70  88 CALM      30.10S
$$

MSZ080>082-220900-
COASTAL MISSISSIPPI

CITY           SKY/WX    TMP DP  RH WIND       PRES   REMARKS
BILOXI         PTCLDY    80  75  84 CALM      30.07S
PASCAGOULA     PTCLDY    75  74  96 CALM      30.07S
GULFPORT       PTCLDY    78  76  93 CALM      30.06F
$$



USA.gov is the U.S. government's official web portal to all federal, state and local government web resources and services.